When you browse on this site, cookies collect data to enhance your experience and personalize the content and advertising you see.
Visit our Privacy Policy to learn more. By continuing to use the site, you agree to this use of cookies and data.
  • In Österreich
  • Länderverzeichnis
  • Für 7 Tage
  • Wassertemperatur
  • Satellitenkarten
  • Wetterkarte
  • News
  • Widgets
  • user-avatar
    Anmelden

    Stündliche Wetter Lugi

    Heute, 21 Juli, Sonntag

    Zeit Temperatur Niederschläge Wind Luftdruck Luftfeuchtigkeit
    00:00 +16°C° 0.4 mm 0 m/S 750 mmHg 85%
    01:00 +15°C° 0.4 mm 0 m/S 750 mmHg 87%
    02:00 +16°C° 0.4 mm 1 m/S 750 mmHg 88%
    03:00 +15°C° 0 mm 0 m/S 750 mmHg 88%
    04:00 +15°C° 0 mm 0 m/S 750 mmHg 87%
    05:00 +15°C° 0 mm 0 m/S 750 mmHg 87%
    06:00 +17°C° 0 mm 0 m/S 750 mmHg 84%
    07:00 +21°C° 0 mm 1 m/S 750 mmHg 80%
    08:00 +22°C° 0 mm 1 m/S 750 mmHg 77%
    09:00 +24°C° 0 mm 1 m/S 750 mmHg 71%
    10:00 +25°C° 0 mm 1 m/S 751 mmHg 64%
    11:00 +27°C° 0 mm 2 m/S 751 mmHg 58%
    12:00 +27°C° 0.1 mm 2 m/S 750 mmHg 55%
    13:00 +28°C° 0.1 mm 2 m/S 750 mmHg 53%
    14:00 +28°C° 0.1 mm 2 m/S 750 mmHg 50%
    15:00 +28°C° 0.1 mm 2 m/S 750 mmHg 52%
    16:00 +28°C° 0.1 mm 1 m/S 750 mmHg 53%
    17:00 +28°C° 0.1 mm 1 m/S 749 mmHg 55%
    18:00 +26°C° 0.1 mm 1 m/S 749 mmHg 61%
    19:00 +24°C° 0.1 mm 1 m/S 749 mmHg 67%
    20:00 +23°C° 0.1 mm 1 m/S 749 mmHg 72%
    21:00 +22°C° 0.6 mm 1 m/S 749 mmHg 76%
    22:00 +19°C° 0.6 mm 0 m/S 749 mmHg 80%
    23:00 +18°C° 0.6 mm 0 m/S 749 mmHg 83%

    Morgen, 22 Juli, Montag

    Zeit Temperatur Niederschläge Wind Luftdruck Luftfeuchtigkeit
    00:00 +18°C° 0.9 mm 0 m/S 748 mmHg 86%
    01:00 +18°C° 0.9 mm 0 m/S 748 mmHg 89%
    02:00 +17°C° 0.9 mm 0 m/S 748 mmHg 92%
    03:00 +19°C° 0.7 mm 1 m/S 748 mmHg 93%
    04:00 +19°C° 0.7 mm 1 m/S 748 mmHg 95%
    05:00 +19°C° 0.7 mm 1 m/S 748 mmHg 96%
    06:00 +18°C° 0.1 mm 2 m/S 748 mmHg 95%
    07:00 +19°C° 0.1 mm 2 m/S 748 mmHg 94%
    08:00 +20°C° 0.1 mm 3 m/S 748 mmHg 93%
    09:00 +20°C° 0 mm 3 m/S 749 mmHg 91%
    10:00 +20°C° 0 mm 4 m/S 749 mmHg 89%
    11:00 +20°C° 0 mm 4 m/S 749 mmHg 87%
    12:00 +21°C° 0 mm 5 m/S 749 mmHg 82%
    13:00 +21°C° 0 mm 5 m/S 749 mmHg 78%
    14:00 +22°C° 0 mm 5 m/S 749 mmHg 73%
    15:00 +22°C° 0 mm 5 m/S 749 mmHg 72%
    16:00 +22°C° 0 mm 5 m/S 749 mmHg 72%
    17:00 +22°C° 0 mm 5 m/S 749 mmHg 71%
    18:00 +21°C° 0.1 mm 4 m/S 749 mmHg 76%
    19:00 +20°C° 0.1 mm 4 m/S 749 mmHg 82%
    20:00 +19°C° 0.1 mm 4 m/S 749 mmHg 87%
    21:00 +18°C° 0 mm 4 m/S 749 mmHg 89%
    22:00 +17°C° 0 mm 4 m/S 749 mmHg 91%
    23:00 +15°C° 0 mm 4 m/S 749 mmHg 93%

    übermorgen, 23 Juli, Dienstag

    Zeit Temperatur Niederschläge Wind Luftdruck Luftfeuchtigkeit
    00:00 +14°C° 0 mm 4 m/S 749 mmHg 94%
    01:00 +14°C° 0 mm 4 m/S 749 mmHg 94%
    02:00 +13°C° 0 mm 4 m/S 749 mmHg 95%
    03:00 +14°C° 0 mm 4 m/S 749 mmHg 93%
    04:00 +14°C° 0 mm 4 m/S 749 mmHg 92%
    05:00 +14°C° 0 mm 4 m/S 749 mmHg 90%
    06:00 +15°C° 0 mm 4 m/S 749 mmHg 89%
    07:00 +15°C° 0 mm 4 m/S 749 mmHg 89%
    08:00 +15°C° 0 mm 4 m/S 749 mmHg 88%
    09:00 +17°C° 0 mm 4 m/S 749 mmHg 84%
    10:00 +18°C° 0 mm 4 m/S 749 mmHg 81%
    11:00 +19°C° 0 mm 3 m/S 749 mmHg 77%
    12:00 +19°C° 0.2 mm 4 m/S 749 mmHg 78%
    13:00 +19°C° 0.2 mm 4 m/S 749 mmHg 79%
    14:00 +20°C° 0.2 mm 4 m/S 748 mmHg 80%
    15:00 +20°C° 0.1 mm 3 m/S 748 mmHg 80%
    16:00 +20°C° 0.1 mm 3 m/S 748 mmHg 81%
    17:00 +20°C° 0.1 mm 3 m/S 748 mmHg 81%
    18:00 +20°C° 0.1 mm 2 m/S 748 mmHg 85%
    19:00 +19°C° 0.1 mm 2 m/S 748 mmHg 89%
    20:00 +18°C° 0.1 mm 2 m/S 748 mmHg 93%
    21:00 +17°C° 0 mm 2 m/S 748 mmHg 94%
    22:00 +17°C° 0 mm 2 m/S 748 mmHg 95%
    23:00 +16°C° 0 mm 2 m/S 749 mmHg 96%

    24 Juli, Mittwoch

    Zeit Temperatur Niederschläge Wind Luftdruck Luftfeuchtigkeit
    00:00 +16°C° 0 mm 2 m/S 749 mmHg 96%
    01:00 +16°C° 0 mm 2 m/S 749 mmHg 95%
    02:00 +15°C° 0 mm 2 m/S 749 mmHg 95%
    03:00 +15°C° 0 mm 2 m/S 749 mmHg 96%
    04:00 +15°C° 0 mm 2 m/S 749 mmHg 96%
    05:00 +15°C° 0 mm 2 m/S 749 mmHg 96%
    06:00 +16°C° 0 mm 2 m/S 749 mmHg 92%
    07:00 +18°C° 0 mm 2 m/S 749 mmHg 87%
    08:00 +20°C° 0 mm 3 m/S 750 mmHg 82%
    09:00 +21°C° 0 mm 3 m/S 750 mmHg 75%
    10:00 +24°C° 0 mm 3 m/S 750 mmHg 68%
    11:00 +25°C° 0 mm 3 m/S 750 mmHg 61%
    12:00 +26°C° 0 mm 4 m/S 750 mmHg 59%
    13:00 +26°C° 0 mm 4 m/S 750 mmHg 57%
    14:00 +27°C° 0 mm 4 m/S 750 mmHg 55%
    15:00 +27°C° 0 mm 4 m/S 750 mmHg 57%
    16:00 +27°C° 0 mm 4 m/S 750 mmHg 59%
    17:00 +26°C° 0 mm 3 m/S 750 mmHg 60%
    18:00 +25°C° 0 mm 3 m/S 750 mmHg 68%
    19:00 +22°C° 0 mm 3 m/S 750 mmHg 75%
    20:00 +20°C° 0 mm 2 m/S 750 mmHg 82%
    21:00 +19°C° 0 mm 2 m/S 750 mmHg 84%
    22:00 +18°C° 0 mm 2 m/S 751 mmHg 85%
    23:00 +17°C° 0 mm 2 m/S 751 mmHg 86%

    25 Juli, Donnerstag

    Zeit Temperatur Niederschläge Wind Luftdruck Luftfeuchtigkeit
    00:00 +17°C° 0 mm 2 m/S 751 mmHg 87%
    01:00 +16°C° 0 mm 2 m/S 751 mmHg 89%
    02:00 +16°C° 0 mm 2 m/S 751 mmHg 90%
    03:00 +16°C° 0 mm 2 m/S 751 mmHg 90%
    04:00 +16°C° 0 mm 2 m/S 751 mmHg 91%
    05:00 +16°C° 0 mm 2 m/S 751 mmHg 91%
    06:00 +17°C° 0 mm 2 m/S 752 mmHg 85%
    07:00 +19°C° 0 mm 2 m/S 752 mmHg 79%
    08:00 +21°C° 0 mm 2 m/S 752 mmHg 72%
    09:00 +23°C° 0 mm 2 m/S 752 mmHg 66%
    10:00 +25°C° 0 mm 3 m/S 752 mmHg 60%
    11:00 +26°C° 0 mm 3 m/S 752 mmHg 54%
    12:00 +27°C° 0 mm 3 m/S 752 mmHg 53%
    13:00 +27°C° 0 mm 3 m/S 752 mmHg 52%
    14:00 +28°C° 0 mm 3 m/S 752 mmHg 51%
    15:00 +28°C° 0 mm 3 m/S 752 mmHg 54%
    16:00 +27°C° 0 mm 3 m/S 751 mmHg 57%
    17:00 +27°C° 0 mm 3 m/S 751 mmHg 59%
    18:00 +25°C° 0 mm 2 m/S 751 mmHg 66%
    19:00 +24°C° 0 mm 2 m/S 751 mmHg 73%
    20:00 +22°C° 0 mm 1 m/S 751 mmHg 80%
    21:00 +20°C° 0 mm 2 m/S 751 mmHg 82%
    22:00 +19°C° 0 mm 2 m/S 751 mmHg 85%
    23:00 +18°C° 0 mm 2 m/S 751 mmHg 87%

    26 Juli, Freitag

    Zeit Temperatur Niederschläge Wind Luftdruck Luftfeuchtigkeit
    00:00 +18°C° 0 mm 2 m/S 752 mmHg 89%
    01:00 +18°C° 0 mm 2 m/S 752 mmHg 91%
    02:00 +17°C° 0 mm 2 m/S 752 mmHg 93%
    03:00 +17°C° 0 mm 2 m/S 752 mmHg 94%
    04:00 +17°C° 0 mm 2 m/S 751 mmHg 95%
    05:00 +17°C° 0 mm 2 m/S 751 mmHg 95%
    06:00 +18°C° 0 mm 2 m/S 751 mmHg 89%
    07:00 +20°C° 0 mm 2 m/S 751 mmHg 83%
    08:00 +23°C° 0 mm 2 m/S 751 mmHg 77%
    09:00 +24°C° 0 mm 2 m/S 751 mmHg 69%
    10:00 +26°C° 0 mm 2 m/S 751 mmHg 61%
    11:00 +27°C° 0 mm 2 m/S 751 mmHg 53%
    12:00 +28°C° 0 mm 2 m/S 751 mmHg 52%
    13:00 +28°C° 0 mm 2 m/S 751 mmHg 52%
    14:00 +28°C° 0 mm 2 m/S 751 mmHg 51%
    15:00 +28°C° 0.1 mm 2 m/S 750 mmHg 56%
    16:00 +28°C° 0.1 mm 2 m/S 750 mmHg 60%
    17:00 +27°C° 0.1 mm 2 m/S 750 mmHg 64%
    18:00 +26°C° 0.1 mm 2 m/S 750 mmHg 71%
    19:00 +24°C° 0.1 mm 2 m/S 750 mmHg 78%
    20:00 +21°C° 0.1 mm 2 m/S 750 mmHg 85%
    21:00 +20°C° 0 mm 2 m/S 750 mmHg 88%
    22:00 +19°C° 0 mm 2 m/S 750 mmHg 91%
    23:00 +18°C° 0 mm 2 m/S 750 mmHg 94%
    Mehr zeigen